Gold Country Challenge - Loft Flight - Hauler Release - Hawk Hit

Station: Loft Fly Inventory - T Race

Distance: 10 Miles

Release: 22-Jul-2021 06:00

Weather Release: Warmer Morning    Arrival: Upper 90s Today

Wind at Release:     Wind at Arrival:

Temp at Release: °    Temp at Arrival: °

Lofts: 102

Birds: 416

Clocked: 413

Release down street from hauler. Hawk hit at 6:25 and multiple times, scared bi
Drops Pos Breeder Pigeon Name Color Sex Ent Arrival Speed To Win Elg PdChampAOC
1 Baglady Loft - CA 8357-AU21-JEDD BB H 1 06:24:05.30 730.644 00:00:00 Yes
2 FLY EAGLE LOFT - NC 98068-AU21-ARPU BC H 1 06:30:37.70 574.631 00:06:32 Yes
3 Salvicon - CA 0102-AU21-RBPC BB H 1 06:31:18.30 562.211 00:07:13 Yes
4 Whiskey Hollow Loft - TX 0020-AU21-WACO "Bugsy" BC H 1 06:35:48.50 491.506 00:11:43 Yes
5 Prout's Loft - CA 0476-AU21-PROU 3/4 Kannibaal BC H 1 06:38:14.90 460.151 00:14:10 Yes
6 C and W Loft - CA 36426-AU21-JEDD BB H 1 06:38:23.00 458.532 00:14:18 Yes
7 Dan & Greg Coury - AZ 0863-AU21-AONE BC H 1 06:38:41.20 454.937 00:14:36 Yes
8 Cline/Bertero - CA 10321-AU21-MAN MLY C 1 06:39:22.90 446.908 00:15:18 Yes
9 Valhalla Loft - CA 2215-AU21-WSJ BCSP C 1 06:42:38.90 412.677 00:18:34 Yes
10 Sierra Ranch - CA 1067-AU21-AUB BBWF H 1 06:49:01.60 358.988 00:24:56 Yes
11 B S Lofts - CA 0351-AU21-TOP 1012 & 906 #1 BB H 1 06:49:31.30 355.400 00:25:26 Yes
12 FLY EAGLE LOFT - NC 98060-AU21-ARPU BC H 2 06:49:35.80 354.863 00:25:30 Yes
13 All Glory To God - NM 0211-AU21-JEDD MLY H 1 06:49:40.90 354.255 00:25:36 Yes
14 Jim Lauritzen - CA 0414-AU21-EAV BC H 1 06:50:23.60 349.253 00:26:18 Yes
15 Genesis Syndicate Loft - AZ 0205-AU21-GENS BC H 1 06:50:24.00 349.206 00:26:19 Yes
16 Sparks Trio Syn - NV 0001-AU21-RENO Lighting BLK C 1 06:51:11.00 343.862 00:27:06 Yes
17 Nemelka Racing Pigeon Loft - UT 1025-AU21-NRPL Next Big Thing BC H 1 06:51:18.40 343.035 00:27:13 Yes
18 Cline/Bertero - CA 0901-AU21-ML RED H 2 06:59:45.90 294.487 00:35:41 Yes
19 Duane Gragg - CA 1051-AU21-AUB BBSP H 1 06:59:46.30 294.454 00:35:41 Yes
20 Denis Eastwood - CA 23634-AU21-JEDD BC H 1 06:59:49.90 294.159 00:35:45 Yes
21 Funny Farm Loft - CA 5365-AU21-ARC Afton BB H 1 07:00:11.90 292.367 00:36:07 Yes
22 Oddiebeng Loft - CA 18380-AU21-FOYS BC H 1 07:01:00.90 288.454 00:36:56 Yes
23 Christopher Loft - UT 0041-AU21-GS PNWF H 1 07:01:01.50 288.406 00:36:56 Yes
24 Okie Shuffle Loft - WI 0425-AU21-VITA BB H 1 07:01:03.80 288.225 00:36:59 Yes
25 Erwin Racing Loft - CA 7025-AU21-BON GRIZ H 1 07:01:05.30 288.107 00:37:00 Yes
26 Prout's Loft - CA 0475-AU21-PROU Black/ Faith BB H 2 07:01:09.10 287.809 00:37:04 Yes
27 Puebla Vista - CA 1008-US21-NPA Truus WGRZ H 1 07:01:15.80 287.284 00:37:11 Yes
28 Salvicon - CA 0106-AU21-RBPC BB H 2 07:01:50.20 284.621 00:37:45 Yes
29 ADS Bob Hilltop Family Loft - NJ 47036-AU21-ARPU Lingle X A.D.S Peaches BB H 1 07:02:02.00 283.718 00:37:57 Yes
30 Kfly Racing Pigeon Loft - ID 2113-AU21-KFLY Giraffe X Classic Eagle BB H 1 07:02:37.80 281.015 00:38:33 Yes
31 E & K Loft - TX 0304-AU21-EK BLK H 1 07:02:38.60 280.956 00:38:33 Yes
32 C and W Loft - CA 36428-AU21-JEDD GRIZ H 2 07:02:41.10 280.769 00:38:36 Yes
33 Sierra Ranch - CA 1053-AU21-AUB BB H 2 07:02:43.10 280.620 00:38:38 Yes
34 Kereru Whare - CA 4323-AU21-FSC BB H 1 07:02:44.80 280.493 00:38:39 Yes
35 Genesis Syndicate Loft - AZ 0209-AU21-GEN BC H 2 07:02:45.20 280.463 00:38:40 Yes
36 R & D Racing 2 - ON 7505-CU21-CRPU BC H 1 07:03:02.80 279.158 00:38:58 Yes
37 A P C Loft - TX 0070-AU21-APC BB H 1 07:03:04.50 279.033 00:38:59 Yes
38 Racing Pigeon Mall - WA 0101-AU21-RPM GRIZ H 1 07:03:07.10 278.841 00:39:02 Yes
39 Sparks Trio Syn - NV 0370-AU21-RENO Palma BB H 2 07:03:09.30 278.679 00:39:04 Yes
40 H & H Flying Circus - CA 0402-AU21-ML BB H 1 07:03:12.30 278.459 00:39:07 Yes
41 Skylinerpl.Com - UT 0640-AU21-UVI 19NL654/DoubleTrouble SLT H 1 07:03:17.10 278.107 00:39:12 Yes
42 Roger Salvi - CA 0104-AU21-RBPC BB H 1 07:03:24.10 277.595 00:39:19 Yes
43 Skylinerpl.Com - UT 0662-AU21-UVI Troy/88 BB H 2 07:03:30.60 277.122 00:39:25 Yes
44 SuperStar Loft - TX 0057-AU21-DUBJ 2353 x 26 BB H 1 07:03:33.10 276.940 00:39:28 Yes
45 B S Lofts - CA 0361-AU21-TOP 1012 & 906 #2 BB H 2 07:03:36.20 276.715 00:39:31 Yes
46 Sierra Ranch - CA 1002-AU21-AUB BBWF H 3 07:03:36.50 276.693 00:39:31 Yes
47 Sierra Ranch - CA 1017-AU21-AUB BB H 4 07:03:46.20 275.992 00:39:41 Yes
48 Sparks Trio Syn - NV 0073-AU21-RENO Mystic BC H 3 07:03:53.40 275.473 00:39:48 Yes
49 Gary Gross - NE 2113-AU21-CIRP BB H 1 07:03:56.10 275.280 00:39:51 Lost
50 A P C Loft - TX 0060-AU21-APC BB H 2 07:03:59.70 275.021 00:39:54 Yes
51 Christopher Loft - UT 0046-AU21-GS BBWF H 2 07:04:41.60 272.053 00:40:36 Yes
52 Gomez Loft - CA 4174-AU21-CHP BC H 1 07:04:44.50 271.850 00:40:39 Yes
53 Guinto-Hedderson - CA 7000-AU21-FSC DCWF H 1 07:04:46.20 271.731 00:40:41 Yes
54 Whiskey Hollow Loft - TX 0024-AU21-WACO "Capone" BCSP H 2 07:04:47.90 271.612 00:40:43 Yes
55 Salvicon - CA 0105-AU21-RBPC BB H 3 07:04:51.80 271.340 00:40:46 Yes
56 Cala's - NY 0109-AU21-CALA BB H 1 07:04:52.80 271.270 00:40:48 Yes
57 Kfly Racing Pigeon Loft - ID 2102-AU21-KFLY Little Maximillian BB H 2 07:05:02.30 270.610 00:40:57 Yes
58 Goshentown Lofts - TN 10603-AU21-NASH BB H 1 07:05:02.90 270.568 00:40:58 Yes
59 R & M Lofts - TX 0301-AU21-WACO BB H 1 07:05:03.30 270.540 00:40:58 Yes
60 Scm Lofts - CA 16721-AU21-JEDD BC H 1 07:05:05.60 270.381 00:41:00 Yes
61 Salvicon - CA 0108-IF21-FCON DCWF H 4 07:05:06.40 270.326 00:41:01 Yes
62 Crazy Als Lofts - CO 5901-AU21-CRAZ BC H 1 07:05:09.90 270.084 00:41:05 Yes
63 Stealth Loft - UT 3270-AU21-OGN PIED H 1 07:05:12.70 269.890 00:41:07 Yes
64 Peters - GA 0369-AU21-NA 369 MONSTER KILLER-3 BC H 1 07:05:16.40 269.635 00:41:11 Yes
65 Ponce & H. Padilla - CA 0005-AU21-PONC BB H 1 07:05:19.80 269.402 00:41:14 Yes
66 Her Loft - CA 0365-AU21-SEL Mz. Fresno PIED H 1 07:05:22.70 269.202 00:41:17 Yes
67 Kereru Whare - CA 4373-AU21-FSC BB H 2 07:05:25.80 268.990 00:41:20 Yes
68 Kereru Whare - CA 4347-AU21-FSC BB H 3 07:05:29.40 268.743 00:41:24 Yes
69 Kfly Racing Pigeon Loft - ID 2139-AU21-KFLY Konruby X Miss Fletcher BC H 3 07:05:35.60 268.320 00:41:30 Yes
70 Toegi Loft - CA 43712-AU21-ARPU BC H 1 07:05:37.70 268.177 00:41:32 Yes
71 Denis Eastwood - CA 23624-AU21-JEDD BBSP H 2 07:05:38.90 268.095 00:41:34 Yes
72 Nanez Family Loft - WI 1029-AU21-NFL BBWF H 1 07:05:43.40 267.789 00:41:38 Yes
73 Denis Eastwood - CA 23640-AU21-JEDD BBSP H 3 07:05:52.00 267.206 00:41:47 Yes
74 Racing Pigeon Mall - WA 0107-AU21-RPM BBSP H 2 07:05:56.10 266.930 00:41:51 Yes
75 O C F Syndicate - CA 1003-AU21-TOP BB H 1 07:06:00.80 266.613 00:41:55 Yes
76 Okie Shuffle Loft - WI 0428-AU21-VITA BB H 2 07:06:01.30 266.579 00:41:56 Yes
77 Jim Lauritzen - CA 0966-AU21-EAV BC H 2 07:06:11.10 265.921 00:42:06 Yes
78 Genesis Syndicate Loft - AZ 0210-AU21-GENS BB H 3 07:06:11.60 265.888 00:42:06 Yes
79 FLY EAGLE LOFT - NC 98097-AU21-ARPU BB H 3 07:06:11.70 265.881 00:42:06 Yes
80 Sierra Ranch - CA 1048-AU21-AUB PIED H 5 07:06:12.10 265.854 00:42:07 Yes
81 Silicon Valley Syndicate - CA 21052-AU21-SVS DCSP H 1 07:06:13.50 265.761 00:42:08 Yes
82 A P C Loft - TX 0071-AU21-APC BB H 3 07:06:16.60 265.553 00:42:11 Yes
83 Jacks Loft - CA 16726-AU21-JEDD BB H 1 07:06:19.40 265.367 00:42:14 Yes
84 Al Shulman - CA 114054-AU21-ARPU BB H 1 07:06:25.00 264.994 00:42:20 Yes
85 Erwin Racing Loft - CA 7027-AU21-BON BB H 2 07:06:25.50 264.960 00:42:20 Yes
86 Nanez Family Loft - WI 1061-AU21-NFL BB H 2 07:06:26.00 264.927 00:42:21 Lost
87 Nemelka Racing Pigeon Loft - UT 1020-AU21-NRPL Working Man Blues BC C 2 07:06:27.80 264.808 00:42:22 Yes
88 Kereru Whare - CA 4313-AU21-FSC BB H 4 07:06:42.40 263.842 00:42:37 Yes
89 PNWC - ID 0603-AU21-IDA “704-70” BB H 1 07:06:46.30 263.585 00:42:41 Yes
90 Roger Salvi - CA 0103-AU21-RBPC BB H 2 07:06:48.50 263.440 00:42:43 Yes
91 RC Manaois Family Loft - NV 10733-AU21-ARPU BB H 1 07:06:56.80 262.896 00:42:51 Yes
92 Ponce & H. Padilla - CA 0014-AU21-PONC RC H 2 07:07:07.30 262.210 00:43:02 Lost
93 Valhalla Loft - CA 2230-AU21-WSJ BCPD C 2 07:07:07.80 262.178 00:43:02 Yes
94 SinghFamilyLoft - CA 2140-AU21-SING BB H 1 07:07:08.10 262.158 00:43:03 Yes
95 Baptista - IL 0196-AU21-BAPT BB H 1 07:07:12.10 261.898 00:43:07 Yes
96 Cline/Bertero - CA 10320-AU21-MAN BC H 3 07:07:23.80 261.141 00:43:18 Yes
97 Valhalla Loft - CA 2208-AU21-WSJ MLY C 3 07:07:41.90 259.977 00:43:37 Yes
98 Bieche Lofts - CA 1076-AU21-BIE BB H 1 07:07:45.30 259.759 00:43:40 Yes
99 Gomez Loft - CA 4114-AU21-CHP BB H 2 07:07:58.10 258.944 00:43:53 Yes
100 Nanez Family Loft - WI 1060-AU21-NFL BB H 3 07:07:58.80 258.900 00:43:53 Yes

There are 413 bird records

Note: These Race Results are unofficial and subject to change until verified by the Race Committee and declared final.